Miscellaneous Local Product
Issued by NWS North Platte, NE

Home | Current Version | Previous Version | Text Only | Print | Product List | Glossary On
Versions: 1 2 3 4 5 6 7 8 9 10 11 12 13 14 15 16 17 18 19 20 21 22 23 24 25 26 27 28 29 30 31 32 33 34 35 36 37 38 39 40 41 42 43 44 45 46 47 48 49 50
000
AXUS43 KLBF 300310
MISLBF


WESTERN AND NORTH CENTRAL NEBRASKA HOURLY WEATHER ROUNDUP
NATIONAL WEATHER SERVICE NORTH PLATTE NE
1000 PM CDT SUN MAR 29 2015

***STATIONS NOT REPORTING VARIABLES SUCH AS SKY/WEATHER OR
PRESSURE ARE PROVIDED BY THE NEBRASKA DEPARTMENT OF
ROADS...RAWS...AND APRS NETWORKS...AND ARE NOT UNDER
NATIONAL WEATHER SERVICE QUALITY CONTROL***

...OBSERVATIONS IN AND NEAR THE EASTERN PANHANDLE OF NEBRASKA...

CITY           SKY/WX    TMP DP  RH WIND       PRES   REMARKS
PINE RIDGE     PTCLDY    42  27  55 CALM      30.08R
CHADRON        CLOUDY    49  27  42 CALM      30.07R
ALLIANCE       CLOUDY    45  28  51 S7        30.11S
SIDNEY         CLEAR     40  24  53 S8        30.16R WCI  34
WHITECLAY        N/A     42  24  49 CALM        N/A
CRESCENT LAKE    N/A     51  24  34 CALM        N/A
BIG SPRINGS      N/A     46  19  34 S5          N/A
$$

...OBSERVATIONS IN NORTH CENTRAL NEBRASKA...

CITY           SKY/WX    TMP DP  RH WIND       PRES   REMARKS
VALENTINE      CLOUDY    42  22  44 SW6       30.09F
THEDFORD       MOCLDY    44  19  36 S3        30.13F
AINSWORTH      MOCLDY    42  23  46 S6        30.10F
O`NEILL        PTCLDY    40  25  55 SW5       30.11F
ORD            CLEAR     37  17  44 S6        30.13S HAZE    WCI  32
BROKEN BOW     MOCLDY    34  15  46 CALM      30.15R
BROWNLEE         N/A     55  21  26 E6          N/A
SPRINGVIEW       N/A     40  23  51 CALM        N/A
BREWSTER         N/A     42  15  33 S3          N/A
ROSE             N/A     50  20  31 SE3         N/A
NEWPORT          N/A     37  24  58 S7          N/A  WCI  32
SARGENT          N/A     43  19  38 CALM        N/A
COMSTOCK         N/A     47  14  26 S5          N/A
EWING            N/A     42  22  45 CALM        N/A
$$

...OBSERVATIONS IN SOUTHWEST NEBRASKA AND FAR NORTHEAST COLORADO...

CITY           SKY/WX    TMP DP  RH WIND       PRES   REMARKS
WRAY           FAIR      51  18  27 E3        30.17S
IMPERIAL       CLEAR     46  17  31 S6        30.16S
OGALLALA       CLEAR     44  19  35 CALM      30.15R
NORTH PLATTE   CLEAR     41  21  44 SE6       30.14S
MCCOOK         CLEAR     49  17  28 SE6       30.17R
LEXINGTON      PTCLDY    44  13  29 S3        30.17S HAZE
PAXTON           N/A     46  19  33 CALM        N/A
SUTHERLAND       N/A     45  18  34 S5          N/A
BRADY            N/A     45  17  32 CALM        N/A
GOTHENBURG       N/A     51  13  21 CALM        N/A
CALLAWAY         N/A     38  15  40 CALM        N/A
$$

...NORTH PLATTE AREA...

CITY           SKY/WX    TMP DP  RH WIND       PRES   REMARKS
AIRPORT        CLEAR     41  21  44 SE6       30.14S
DOWNTOWN         N/A     46  25  44 CALM        N/A
$$

...SOME WEATHER OBSERVATIONS FROM AROUND THE REGION...

CITY           SKY/WX    TMP DP  RH WIND       PRES   REMARKS
DENVER         PTCLDY    47  30  51 SE9       30.16S
LARAMIE        MOCLDY    44  12  27 W5        30.21R
CHEYENNE       MOCLDY    47  23  38 SW10      30.18R
SCOTTSBLUFF    PTCLDY    48  24  39 SE7       30.12S
RAPID CITY     MOCLDY    45  27  49 CALM      30.06R
PIERRE         MOCLDY    49  29  46 S7        30.02S
WINNER         FAIR      54  21  27 SW6       30.07S
SIOUX FALLS    CLEAR     36  22  56 CALM      30.05S
OMAHA          CLEAR     47  24  40 CALM      30.12R
GRAND ISLAND   CLEAR     41  18  39 SW5       30.17R
KANSAS CITY    CLEAR     53  35  50 NW6       30.15R
WICHITA        CLEAR     59  30  33 NE9       30.16R
HAYS           CLEAR     45  12  26 NE8       30.18S
LIBERAL        PTCLDY    52  25  35 CALM      30.23R
GOODLAND       CLEAR     42  20  41 SE6       30.20R
$$



USA.gov is the U.S. government's official web portal to all federal, state and local government web resources and services.